Flag for Australia Weather past 2 weeks in Mandurah, Western Australia, Australia

Now
59 °F

Cool.


Feels Like: 58 °F
Forecast: 60 / 80 °F
Wind: 8 mph from Southeast

Location: Mandurah Aws

Current Time: Oct 1, 2014 at 4:54:15 AM

Latest Report: Oct 1, 2014 at 3:00 AM


Visibility: N/A

Pressure: 30.10 "Hg

Humidity: 70%

Dew point: 50 °F

Location of MandurahLocation

Historic Weather in Mandurah — Graph

°F

Mandurah temperature yesterday

Maximum temperature yesterday: 71 °F (at 2:00 PM)
Minimum temperature yesterday: 58 °F (at 6:00 AM)
Average temperature yesterday: 64 °F

Past Weeks' High & Low Weather Summary

 TemperatureHumidityPressure
High81 °F (Sep 20, 2:00 PM)100% (Sep 20, 9:00 PM)30.33 "Hg (Sep 20, 9:00 PM)
Low49 °F (Sep 23, 2:00 AM)37% (Sep 16, 2:00 PM)29.62 "Hg (Sep 21, 8:00 AM)
Average63 °F72%30.05 "Hg
* Reported Sep 16 3:00 AM — Oct 1 3:00 AM, Mandurah, Weather by CustomWeather, © 2014

Note: Actual official high and low records may vary slightly from our data, if they occured in-between our weather recording intervals... More about our weather records

Advertising

Mandurah weather history for previous 24 hours

 ConditionsComfort  
Time TempWeatherWind HumidityBarometerVisibility
3:00 AM
Oct 1
59 °FCool.8 mph70%30.10 "HgN/A
2:00 AM60 °FCool.8 mph68%30.12 "HgN/A
12:00 AM61 °FCool.8 mph70%30.15 "HgN/A
11:00 PM
Sep 30
62 °FCool.7 mph69%30.16 "HgN/A
9:00 PM64 °FMild.7 mph67%30.18 "HgN/A
8:00 PM65 °FMild.7 mph64%30.17 "HgN/A
6:00 PM67 °FMild.7 mph65%30.14 "HgN/A
5:00 PM69 °FMild.9 mph57%30.14 "HgN/A
3:00 PM68 °FMild.13 mph59%30.14 "HgN/A
2:00 PM71 °FMild.7 mph49%30.15 "HgN/A
12:00 PM69 °FMild.3 mph53%30.20 "HgN/A
11:00 AM68 °FMild.5 mph49%30.22 "HgN/A
9:00 AM63 °FMild.8 mph56%30.23 "HgN/A
8:00 AM60 °FCool.7 mph62%30.23 "HgN/A
6:00 AM58 °FCool.6 mph75%30.19 "HgN/A
5:00 AM58 °FCool.5 mph76%30.18 "HgN/A
Weather by CustomWeather, © 2014

See weather overviewHow to use our weather pages